Meath Environmental Platform

Observations for Trim Patrick St

Time AQI Temp °C Hum % Pres Pa CO μg/m³ H₂S μg/m³ NO μg/m³ NO₂ μg/m³ O₃ μg/m³ SO₂ μg/m³ PM1 μg/m³ PM2.5 μg/m³ PM10 μg/m³
Monday 3 August 2026
00:43 2 15.4 82 38,460 0.16 0 1.52 22.47 24.58 0 6.29 11.39 12.53
00:42 2 15.4 82 38,460 0.15 0.49 1.63 20.9 29.82 0 8 11.4 12.53
00:41 2 15.4 81 38,460 0.17 0.41 1.7 24.56 25.45 0 6.29 10.71 11.78
00:40 2 15.4 82 38,460 0.18 0.2 1.82 21.97 25.05 0 8 11.4 12.53
00:39 2 15.4 81 38,460 0.17 0 1.87 21.65 29.75 0 6.29 12.81 14.09
00:38 2 15.4 81 38,460 0.16 0 1.96 19.41 21.14 0 8 11.4 12.54
00:37 2 15.4 81 38,460 0.17 0 1.93 16.34 22.03 0 7.14 12.1 13.31
00:36 2 15.4 81 38,460 0.18 0 1.94 24.26 26.37 0 6.29 10.03 11.03
00:35 2 15.4 81 38,460 0.16 0 1.92 15.69 25.84 0 8 11.42 12.56
00:34 2 15.5 81 38,460 0.16 0 1.9 19.93 21.63 0 7.14 10.72 11.8
00:33 2 15.5 81 38,460 0.17 0 1.86 22.77 25.23 0 6.29 10.03 11.03
00:32 2 15.5 81 38,460 0.17 0 1.94 17.22 26.7 0 8 11.43 12.57
00:31 2 15.5 81 38,460 0.17 0 1.88 19.21 22.65 0 6.29 10.05 11.05
00:30 2 15.5 81 38,460 0.16 0 1.89 19.49 23.64 0 7.14 10.76 11.83
00:29 2 15.5 81 38,460 0.17 0 1.91 24.76 27.24 0 6.29 10.76 11.83
00:28 2 15.5 81 38,460 0.18 0 1.87 22.86 30.82 0 8 12.16 13.38
00:27 2 15.5 81 38,460 0.18 0 1.88 21.88 29.64 0 7.14 11.47 12.62
00:26 2 15.5 81 38,460 0.18 0 1.95 23.1 30.82 0 6.29 10.76 11.84
00:25 2 15.5 81 38,460 0.18 0 1.93 22 29.99 0 8 11.44 12.58
00:24 2 15.5 81 38,460 0.18 0 1.85 21.51 24.18 0 6.29 10.74 11.81